Retour au catalogue

ARIANE 44LP DEB

ActifGTO
NORAD 25538·DEBRIS·🇫🇷 France

Lancé Dec 11, 1988 depuis Guiana Space Centre

Loading…

TLE

VieillissantSource: Space-Track

Époque: Sep 14, 2026, 08:07 UTC

1 25538U 88109E   26257.33840951 -.00000304  00000-0 -25456-2 0  9997
2 25538   6.8216  83.7751 7189792 359.3754 296.9006  2.24188686228119

Suivez ARIANE 44LP DEB en temps réel avec AllMySat

Download on the App Store